owner,sensor,date,latitude,longitude,vertical_datum,direction_of_sea_water_velocity,sea_water_speed,upward_sea_water_velocity,qcFlag 
TABS,ioos:station:wmo:42047:1,2013-10-01T00:00:00Z,27.8966,-93.5973,2.0,91.99273018,7.764695744,-99999.0,'11133222,11111222,99999999' 
TABS,ioos:station:wmo:42047:1,2013-10-01T00:30:00Z,27.8966,-93.5973,2.0,83.69972811,7.92788118,-99999.0,'11133222,11111222,99999999' 
TABS,ioos:station:wmo:42047:1,2013-10-01T01:00:00Z,27.8966,-93.5973,2.0,85.378588,7.695017869,-99999.0,'11133222,11111222,99999999' 
TABS,ioos:station:wmo:42047:1,2013-10-01T01:30:00Z,27.8966,-93.5973,2.0,95.45754072,6.308597308,-99999.0,'11133222,11111222,99999999' 
TABS,ioos:station:wmo:42047:1,2013-10-01T02:00:00Z,27.8966,-93.5973,2.0,105.255083,4.332666615,-99999.0,'11133222,11111222,99999999' 
TABS,ioos:station:wmo:42047:1,2013-10-01T02:30:00Z,27.8966,-93.5973,2.0,88.71025964,5.331350673,-99999.0,'11133222,11111222,99999999' 
TABS,ioos:station:wmo:42047:1,2013-10-01T03:00:00Z,27.8966,-93.5973,2.0,113.8360364,4.602575366,-99999.0,'11133222,11111222,99999999' 
TABS,ioos:station:wmo:42047:1,2013-10-01T03:30:00Z,27.8966,-93.5973,2.0,85.50742903,2.808629559,-99999.0,'11133222,11111222,99999999' 
TABS,ioos:station:wmo:42047:1,2013-10-01T04:00:00Z,27.8966,-93.5973,2.0,110.3502276,2.933070064,-99999.0,'11133222,11111222,99999999' 
TABS,ioos:station:wmo:42047:1,2013-10-01T04:30:00Z,27.8966,-93.5973,2.0,358.9522363,1.640274367,-99999.0,'11133222,11111222,99999999' 
TABS,ioos:station:wmo:42047:1,2013-10-01T05:00:00Z,27.8966,-93.5973,2.0,1.252374906,1.830437106,-99999.0,'11133222,11111222,99999999' 
TABS,ioos:station:wmo:42047:1,2013-10-01T05:30:00Z,27.8966,-93.5973,2.0,318.2762898,2.103544628,-99999.0,'11133222,11111222,99999999' 
TABS,ioos:station:wmo:42047:1,2013-10-01T06:00:00Z,27.8966,-93.5973,2.0,328.1013712,3.993018908,-99999.0,'11133222,11111222,99999999' 
TABS,ioos:station:wmo:42047:1,2013-10-01T06:30:00Z,27.8966,-93.5973,2.0,335.1622051,4.45179739,-99999.0,'11133222,11111222,99999999' 
TABS,ioos:station:wmo:42047:1,2013-10-01T07:00:00Z,27.8966,-93.5973,2.0,324.7527178,2.755104354,-99999.0,'11133222,11111222,99999999' 
TABS,ioos:station:wmo:42047:1,2013-10-01T07:30:00Z,27.8966,-93.5973,2.0,316.2970662,5.311732297,-99999.0,'11133222,11111222,99999999' 
TABS,ioos:station:wmo:42047:1,2013-10-01T08:00:00Z,27.8966,-93.5973,2.0,346.7556586,8.074781731,-99999.0,'11133222,11111222,99999999' 
TABS,ioos:station:wmo:42047:1,2013-10-01T08:30:00Z,27.8966,-93.5973,2.0,342.9365556,6.475036679,-99999.0,'11133222,11111222,99999999' 
TABS,ioos:station:wmo:42047:1,2013-10-01T09:00:00Z,27.8966,-93.5973,2.0,341.0036007,9.67703467,-99999.0,'11133222,11111222,99999999' 
TABS,ioos:station:wmo:42047:1,2013-10-01T09:30:00Z,27.8966,-93.5973,2.0,344.6582995,9.259989201,-99999.0,'11133222,11111222,99999999' 
TABS,ioos:station:wmo:42047:1,2013-10-01T10:00:00Z,27.8966,-93.5973,2.0,333.642897,11.10438652,-99999.0,'11111222,11111222,99999999' 
TABS,ioos:station:wmo:42047:1,2013-10-01T10:30:00Z,27.8966,-93.5973,2.0,334.7748279,11.28628371,-99999.0,'11111222,11111222,99999999' 
TABS,ioos:station:wmo:42047:1,2013-10-01T11:00:00Z,27.8966,-93.5973,2.0,354.867668,10.06033797,-99999.0,'11111222,11111222,99999999' 
TABS,ioos:station:wmo:42047:1,2013-10-01T11:30:00Z,27.8966,-93.5973,2.0,1.714670276,14.70658356,-99999.0,'11111222,11111222,99999999' 
TABS,ioos:station:wmo:42047:1,2013-10-01T12:00:00Z,27.8966,-93.5973,2.0,0.275101782,14.59016792,-99999.0,'11111222,11111222,99999999' 
TABS,ioos:station:wmo:42047:1,2013-10-01T12:30:00Z,27.8966,-93.5973,2.0,13.86215923,15.15127057,-99999.0,'11111222,11111222,99999999' 
TABS,ioos:station:wmo:42047:1,2013-10-01T13:00:00Z,27.8966,-93.5973,2.0,17.6770384,15.77482171,-99999.0,'11111222,11111222,99999999' 
TABS,ioos:station:wmo:42047:1,2013-10-01T13:30:00Z,27.8966,-93.5973,2.0,20.78597981,16.34375722,-99999.0,'11111222,11111222,99999999' 
TABS,ioos:station:wmo:42047:1,2013-10-01T14:00:00Z,27.8966,-93.5973,2.0,31.48452437,15.85398373,-99999.0,'11111222,11111222,99999999' 
TABS,ioos:station:wmo:42047:1,2013-10-01T14:30:00Z,27.8966,-93.5973,2.0,38.37886436,14.96318816,-99999.0,'11111222,11111222,99999999' 
TABS,ioos:station:wmo:42047:1,2013-10-01T15:00:00Z,27.8966,-93.5973,2.0,33.87094196,13.18806278,-99999.0,'11111222,11111222,99999999' 
TABS,ioos:station:wmo:42047:1,2013-10-01T15:30:00Z,27.8966,-93.5973,2.0,53.05946416,12.96200988,-99999.0,'11111222,11111222,99999999' 
TABS,ioos:station:wmo:42047:1,2013-10-01T16:00:00Z,27.8966,-93.5973,2.0,53.81665565,12.68691058,-99999.0,'11111222,11111222,99999999' 
TABS,ioos:station:wmo:42047:1,2013-10-01T16:30:00Z,27.8966,-93.5973,2.0,38.44825516,11.83649019,-99999.0,'11111222,11111222,99999999' 
TABS,ioos:station:wmo:42047:1,2013-10-01T17:00:00Z,27.8966,-93.5973,2.0,43.74834302,11.00520786,-99999.0,'11111222,11111222,99999999' 
TABS,ioos:station:wmo:42047:1,2013-10-01T17:30:00Z,27.8966,-93.5973,2.0,42.26637312,10.37799595,-99999.0,'11111222,11111222,99999999' 
TABS,ioos:station:wmo:42047:1,2013-10-01T18:00:00Z,27.8966,-93.5973,2.0,38.22756918,12.83160161,-99999.0,'11111222,11111222,99999999' 
TABS,ioos:station:wmo:42047:1,2013-10-01T18:30:00Z,27.8966,-93.5973,2.0,46.78353537,9.769877174,-99999.0,'11133222,11111222,99999999' 
TABS,ioos:station:wmo:42047:1,2013-10-01T19:00:00Z,27.8966,-93.5973,2.0,44.7990687,10.07633366,-99999.0,'11111222,11111222,99999999' 
TABS,ioos:station:wmo:42047:1,2013-10-01T19:30:00Z,27.8966,-93.5973,2.0,36.29453747,12.1466127,-99999.0,'11111222,11111222,99999999' 
TABS,ioos:station:wmo:42047:1,2013-10-01T20:00:00Z,27.8966,-93.5973,2.0,34.84678406,12.91605203,-99999.0,'11111222,11111222,99999999' 
TABS,ioos:station:wmo:42047:1,2013-10-01T20:30:00Z,27.8966,-93.5973,2.0,33.86285022,12.88574406,-99999.0,'11111222,11111222,99999999' 
TABS,ioos:station:wmo:42047:1,2013-10-01T21:00:00Z,27.8966,-93.5973,2.0,53.87875065,12.55307134,-99999.0,'11111222,11111222,99999999' 
TABS,ioos:station:wmo:42047:1,2013-10-01T21:30:00Z,27.8966,-93.5973,2.0,49.49245881,13.27073849,-99999.0,'11111222,11111222,99999999' 
TABS,ioos:station:wmo:42047:1,2013-10-01T22:00:00Z,27.8966,-93.5973,2.0,69.18498271,14.23937147,-99999.0,'11111222,11111222,99999999' 
TABS,ioos:station:wmo:42047:1,2013-10-01T22:30:00Z,27.8966,-93.5973,2.0,71.70495319,11.65935247,-99999.0,'11111222,11111222,99999999' 
TABS,ioos:station:wmo:42047:1,2013-10-01T23:00:00Z,27.8966,-93.5973,2.0,70.55025694,13.0337907,-99999.0,'11111222,11111222,99999999' 
TABS,ioos:station:wmo:42047:1,2013-10-01T23:30:00Z,27.8966,-93.5973,2.0,63.24129988,11.90489395,-99999.0,'11111222,11111222,99999999' 
TABS,ioos:station:wmo:42047:1,2013-10-02T00:00:00Z,27.8966,-93.5973,2.0,75.65703392,8.15416458,-99999.0,'11133222,11111222,99999999' 
TABS,ioos:station:wmo:42047:1,2013-10-02T00:30:00Z,27.8966,-93.5973,2.0,79.61762728,7.26901644,-99999.0,'11133222,11111222,99999999' 
TABS,ioos:station:wmo:42047:1,2013-10-02T01:00:00Z,27.8966,-93.5973,2.0,91.01479259,6.210974159,-99999.0,'11133222,11111222,99999999' 
TABS,ioos:station:wmo:42047:1,2013-10-02T01:30:00Z,27.8966,-93.5973,2.0,93.22864032,5.8593003,-99999.0,'11133222,11111222,99999999' 
TABS,ioos:station:wmo:42047:1,2013-10-02T02:00:00Z,27.8966,-93.5973,2.0,119.020145,6.472650153,-99999.0,'11133222,11111222,99999999' 
TABS,ioos:station:wmo:42047:1,2013-10-02T02:30:00Z,27.8966,-93.5973,2.0,93.70841949,2.164532282,-99999.0,'11133222,11111222,99999999' 
TABS,ioos:station:wmo:42047:1,2013-10-02T03:00:00Z,27.8966,-93.5973,2.0,133.6724258,3.967933971,-99999.0,'11133222,11111222,99999999' 
TABS,ioos:station:wmo:42047:1,2013-10-02T03:30:00Z,27.8966,-93.5973,2.0,67.26830681,3.545391375,-99999.0,'11133222,11111222,99999999' 
TABS,ioos:station:wmo:42047:1,2013-10-02T04:00:00Z,27.8966,-93.5973,2.0,52.78229776,4.282078934,-99999.0,'11133222,11111222,99999999' 
TABS,ioos:station:wmo:42047:1,2013-10-02T04:30:00Z,27.8966,-93.5973,2.0,69.95155913,2.246107745,-99999.0,'11133222,11111222,99999999' 
TABS,ioos:station:wmo:42047:1,2013-10-02T05:00:00Z,27.8966,-93.5973,2.0,20.29773277,0.778331549,-99999.0,'11133222,11111222,99999999' 
TABS,ioos:station:wmo:42047:1,2013-10-02T05:30:00Z,27.8966,-93.5973,2.0,38.81572846,2.297324531,-99999.0,'11133222,11111222,99999999' 
TABS,ioos:station:wmo:42047:1,2013-10-02T06:00:00Z,27.8966,-93.5973,2.0,236.3095903,0.216333077,-99999.0,'11133222,11111222,99999999' 
TABS,ioos:station:wmo:42047:1,2013-10-02T06:30:00Z,27.8966,-93.5973,2.0,330.1242876,1.626099628,-99999.0,'11133222,11111222,99999999' 
TABS,ioos:station:wmo:42047:1,2013-10-02T07:00:00Z,27.8966,-93.5973,2.0,256.3629132,1.739022714,-99999.0,'11133222,11111222,99999999' 
TABS,ioos:station:wmo:42047:1,2013-10-02T07:30:00Z,27.8966,-93.5973,2.0,288.7337388,1.214331092,-99999.0,'11133222,11111222,99999999' 
TABS,ioos:station:wmo:42047:1,2013-10-02T08:00:00Z,27.8966,-93.5973,2.0,295.1151971,0.353411941,-99999.0,'11133222,11111222,99999999' 
TABS,ioos:station:wmo:42047:1,2013-10-02T08:30:00Z,27.8966,-93.5973,2.0,23.89124699,1.62963186,-99999.0,'11133222,11111222,99999999' 
TABS,ioos:station:wmo:42047:1,2013-10-02T09:00:00Z,27.8966,-93.5973,2.0,289.0870587,3.058120338,-99999.0,'11133222,11111222,99999999' 
TABS,ioos:station:wmo:42047:1,2013-10-02T09:30:00Z,27.8966,-93.5973,2.0,304.5926287,3.170504692,-99999.0,'11133222,11111222,99999999' 
TABS,ioos:station:wmo:42047:1,2013-10-02T10:00:00Z,27.8966,-93.5973,2.0,1.499193669,5.351831462,-99999.0,'11133222,11111222,99999999' 
TABS,ioos:station:wmo:42047:1,2013-10-02T10:30:00Z,27.8966,-93.5973,2.0,332.7758377,3.497441922,-99999.0,'11133222,11111222,99999999' 
TABS,ioos:station:wmo:42047:1,2013-10-02T11:00:00Z,27.8966,-93.5973,2.0,334.0844361,3.157530681,-99999.0,'11133222,11111222,99999999' 
TABS,ioos:station:wmo:42047:1,2013-10-02T11:30:00Z,27.8966,-93.5973,2.0,356.4984257,6.712533054,-99999.0,'11133222,11111222,99999999' 
TABS,ioos:station:wmo:42047:1,2013-10-02T12:00:00Z,27.8966,-93.5973,2.0,347.1734223,5.630506194,-99999.0,'11133222,11111222,99999999' 
TABS,ioos:station:wmo:42047:1,2013-10-02T12:30:00Z,27.8966,-93.5973,2.0,20.45320431,5.208339467,-99999.0,'11133222,11111222,99999999' 
TABS,ioos:station:wmo:42047:1,2013-10-02T13:00:00Z,27.8966,-93.5973,2.0,13.44344666,6.79621218,-99999.0,'11133222,11111222,99999999' 
TABS,ioos:station:wmo:42047:1,2013-10-02T13:30:00Z,27.8966,-93.5973,2.0,25.63908205,9.960747964,-99999.0,'11133222,11111222,99999999' 
TABS,ioos:station:wmo:42047:1,2013-10-02T14:00:00Z,27.8966,-93.5973,2.0,32.46086759,8.402868558,-99999.0,'11133222,11111222,99999999' 
TABS,ioos:station:wmo:42047:1,2013-10-02T14:30:00Z,27.8966,-93.5973,2.0,31.08682244,8.792752698,-99999.0,'11133222,11111222,99999999' 
TABS,ioos:station:wmo:42047:1,2013-10-02T15:00:00Z,27.8966,-93.5973,2.0,36.77398043,8.352011734,-99999.0,'11133222,11111222,99999999' 
TABS,ioos:station:wmo:42047:1,2013-10-02T15:30:00Z,27.8966,-93.5973,2.0,21.854376,10.07397637,-99999.0,'11111222,11111222,99999999' 
TABS,ioos:station:wmo:42047:1,2013-10-02T16:00:00Z,27.8966,-93.5973,2.0,35.88666667,8.97332157,-99999.0,'11133222,11111222,99999999' 
TABS,ioos:station:wmo:42047:1,2013-10-02T16:30:00Z,27.8966,-93.5973,2.0,33.12808189,11.30810771,-99999.0,'11111222,11111222,99999999' 
TABS,ioos:station:wmo:42047:1,2013-10-02T17:00:00Z,27.8966,-93.5973,2.0,33.60277839,9.088773295,-99999.0,'11133222,11111222,99999999' 
TABS,ioos:station:wmo:42047:1,2013-10-02T17:30:00Z,27.8966,-93.5973,2.0,24.23851795,7.380636829,-99999.0,'11133222,11111222,99999999' 
TABS,ioos:station:wmo:42047:1,2013-10-02T18:00:00Z,27.8966,-93.5973,2.0,29.31738812,8.475529482,-99999.0,'11133222,11111222,99999999' 
TABS,ioos:station:wmo:42047:1,2013-10-02T18:30:00Z,27.8966,-93.5973,2.0,39.48742913,8.759138085,-99999.0,'11133222,11111222,99999999' 
TABS,ioos:station:wmo:42047:1,2013-10-02T19:00:00Z,27.8966,-93.5973,2.0,21.57463873,11.72118168,-99999.0,'11111222,11111222,99999999' 
TABS,ioos:station:wmo:42047:1,2013-10-02T19:30:00Z,27.8966,-93.5973,2.0,32.25250301,12.04910785,-99999.0,'11111222,11111222,99999999' 
TABS,ioos:station:wmo:42047:1,2013-10-02T20:00:00Z,27.8966,-93.5973,2.0,42.72577694,11.93829552,-99999.0,'11111222,11111222,99999999' 
TABS,ioos:station:wmo:42047:1,2013-10-02T20:30:00Z,27.8966,-93.5973,2.0,41.91530011,13.00840113,-99999.0,'11111222,11111222,99999999' 
TABS,ioos:station:wmo:42047:1,2013-10-02T21:00:00Z,27.8966,-93.5973,2.0,26.5235148,12.29390499,-99999.0,'11111222,11111222,99999999' 
TABS,ioos:station:wmo:42047:1,2013-10-02T21:30:00Z,27.8966,-93.5973,2.0,46.08810392,10.79946758,-99999.0,'11111222,11111222,99999999' 
TABS,ioos:station:wmo:42047:1,2013-10-02T22:00:00Z,27.8966,-93.5973,2.0,47.20686833,11.20180789,-99999.0,'11111222,11111222,99999999' 
TABS,ioos:station:wmo:42047:1,2013-10-02T22:30:00Z,27.8966,-93.5973,2.0,56.06032234,9.546481027,-99999.0,'11133222,11111222,99999999' 
TABS,ioos:station:wmo:42047:1,2013-10-02T23:00:00Z,27.8966,-93.5973,2.0,54.28701103,9.113857581,-99999.0,'11133222,11111222,99999999' 
TABS,ioos:station:wmo:42047:1,2013-10-02T23:30:00Z,27.8966,-93.5973,2.0,49.84619033,6.528721161,-99999.0,'11133222,11111222,99999999' 
TABS,ioos:station:wmo:42047:1,2013-10-03T00:00:00Z,27.8966,-93.5973,2.0,47.64692461,5.818625267,-99999.0,'11133222,11111222,99999999' 
TABS,ioos:station:wmo:42047:1,2013-10-03T00:30:00Z,27.8966,-93.5973,2.0,59.63076517,6.942636387,-99999.0,'11133222,11111222,99999999' 
TABS,ioos:station:wmo:42047:1,2013-10-03T01:00:00Z,27.8966,-93.5973,2.0,54.0934178,5.234739726,-99999.0,'11133222,11111222,99999999' 
TABS,ioos:station:wmo:42047:1,2013-10-03T01:30:00Z,27.8966,-93.5973,2.0,67.23595221,5.194631845,-99999.0,'11133222,11111222,99999999' 
TABS,ioos:station:wmo:42047:1,2013-10-03T02:00:00Z,27.8966,-93.5973,2.0,53.98889836,5.204584518,-99999.0,'11133222,11111222,99999999' 
TABS,ioos:station:wmo:42047:1,2013-10-03T02:30:00Z,27.8966,-93.5973,2.0,50.97786484,2.715916052,-99999.0,'11133222,11111222,99999999' 
TABS,ioos:station:wmo:42047:1,2013-10-03T03:00:00Z,27.8966,-93.5973,2.0,50.80504189,3.845165796,-99999.0,'11133222,11111222,99999999' 
TABS,ioos:station:wmo:42047:1,2013-10-03T03:30:00Z,27.8966,-93.5973,2.0,43.22300612,2.964203097,-99999.0,'11133222,11111222,99999999' 
TABS,ioos:station:wmo:42047:1,2013-10-03T04:00:00Z,27.8966,-93.5973,2.0,42.87901379,1.528397854,-99999.0,'11133222,11111222,99999999' 
TABS,ioos:station:wmo:42047:1,2013-10-03T04:30:00Z,27.8966,-93.5973,2.0,26.11700283,3.430233228,-99999.0,'11133222,11111222,99999999' 
TABS,ioos:station:wmo:42047:1,2013-10-03T05:00:00Z,27.8966,-93.5973,2.0,16.59686666,3.746064602,-99999.0,'11133222,11111222,99999999' 
TABS,ioos:station:wmo:42047:1,2013-10-03T05:30:00Z,27.8966,-93.5973,2.0,327.9157372,3.068696792,-99999.0,'11133222,11111222,99999999' 
TABS,ioos:station:wmo:42047:1,2013-10-03T06:00:00Z,27.8966,-93.5973,2.0,354.1934971,2.372172001,-99999.0,'11133222,11111222,99999999' 
TABS,ioos:station:wmo:42047:1,2013-10-03T06:30:00Z,27.8966,-93.5973,2.0,353.7133318,1.187139419,-99999.0,'11133222,11111222,99999999' 
TABS,ioos:station:wmo:42047:1,2013-10-03T07:00:00Z,27.8966,-93.5973,2.0,333.1893189,3.126051823,-99999.0,'11133222,11111222,99999999' 
TABS,ioos:station:wmo:42047:1,2013-10-03T07:30:00Z,27.8966,-93.5973,2.0,346.2828962,2.614574535,-99999.0,'11133222,11111222,99999999' 
TABS,ioos:station:wmo:42047:1,2013-10-03T08:00:00Z,27.8966,-93.5973,2.0,358.0587286,1.771016657,-99999.0,'11133222,11111222,99999999' 
TABS,ioos:station:wmo:42047:1,2013-10-03T08:30:00Z,27.8966,-93.5973,2.0,320.3123422,3.742525885,-99999.0,'11133222,11111222,99999999' 
TABS,ioos:station:wmo:42047:1,2013-10-03T09:00:00Z,27.8966,-93.5973,2.0,313.1242505,3.671852394,-99999.0,'11133222,11111222,99999999' 
TABS,ioos:station:wmo:42047:1,2013-10-03T09:30:00Z,27.8966,-93.5973,2.0,327.9439387,4.766812352,-99999.0,'11133222,11111222,99999999' 
TABS,ioos:station:wmo:42047:1,2013-10-03T10:00:00Z,27.8966,-93.5973,2.0,325.903235,7.028228795,-99999.0,'11133222,11111222,99999999' 
TABS,ioos:station:wmo:42047:1,2013-10-03T10:30:00Z,27.8966,-93.5973,2.0,339.4067733,5.373360215,-99999.0,'11133222,11111222,99999999' 
TABS,ioos:station:wmo:42047:1,2013-10-03T11:00:00Z,27.8966,-93.5973,2.0,332.089974,4.571783022,-99999.0,'11133222,11111222,99999999' 
TABS,ioos:station:wmo:42047:1,2013-10-03T11:30:00Z,27.8966,-93.5973,2.0,348.313273,8.046819247,-99999.0,'11133222,11111222,99999999' 
TABS,ioos:station:wmo:42047:1,2013-10-03T12:00:00Z,27.8966,-93.5973,2.0,345.1222847,7.594609931,-99999.0,'11133222,11111222,99999999' 
TABS,ioos:station:wmo:42047:1,2013-10-03T12:30:00Z,27.8966,-93.5973,2.0,356.7297302,9.114845034,-99999.0,'11133222,11111222,99999999' 
TABS,ioos:station:wmo:42047:1,2013-10-03T13:00:00Z,27.8966,-93.5973,2.0,6.099769728,8.940615191,-99999.0,'11133222,11111222,99999999' 
TABS,ioos:station:wmo:42047:1,2013-10-03T13:30:00Z,27.8966,-93.5973,2.0,7.074391118,12.58580947,-99999.0,'11111222,11111222,99999999' 
TABS,ioos:station:wmo:42047:1,2013-10-03T14:00:00Z,27.8966,-93.5973,2.0,13.0505283,11.55853364,-99999.0,'11111222,11111222,99999999' 
TABS,ioos:station:wmo:42047:1,2013-10-03T14:30:00Z,27.8966,-93.5973,2.0,13.50580678,11.26141199,-99999.0,'11111222,11111222,99999999' 
TABS,ioos:station:wmo:42047:1,2013-10-03T15:00:00Z,27.8966,-93.5973,2.0,11.56243624,12.02399684,-99999.0,'11111222,11111222,99999999' 
TABS,ioos:station:wmo:42047:1,2013-10-03T15:30:00Z,27.8966,-93.5973,2.0,17.31474441,12.12965375,-99999.0,'11111222,11111222,99999999' 
TABS,ioos:station:wmo:42047:1,2013-10-03T16:00:00Z,27.8966,-93.5973,2.0,22.86222641,15.64937059,-99999.0,'11111222,11111222,99999999' 
TABS,ioos:station:wmo:42047:1,2013-10-03T16:30:00Z,27.8966,-93.5973,2.0,20.64047237,15.12056216,-99999.0,'11111222,11111222,99999999' 
TABS,ioos:station:wmo:42047:1,2013-10-03T17:00:00Z,27.8966,-93.5973,2.0,19.09365781,15.40763447,-99999.0,'11111222,11111222,99999999' 
TABS,ioos:station:wmo:42047:1,2013-10-03T17:30:00Z,27.8966,-93.5973,2.0,26.87177258,15.04448072,-99999.0,'11111222,11111222,99999999' 
TABS,ioos:station:wmo:42047:1,2013-10-03T18:00:00Z,27.8966,-93.5973,2.0,15.18350447,12.5998254,-99999.0,'11111222,11111222,99999999' 
TABS,ioos:station:wmo:42047:1,2013-10-03T18:30:00Z,27.8966,-93.5973,2.0,28.71815727,14.88035618,-99999.0,'11111222,11111222,99999999' 
TABS,ioos:station:wmo:42047:1,2013-10-03T19:00:00Z,27.8966,-93.5973,2.0,21.04410856,12.78252714,-99999.0,'11111222,11111222,99999999' 
TABS,ioos:station:wmo:42047:1,2013-10-03T19:30:00Z,27.8966,-93.5973,2.0,30.05709675,15.71295326,-99999.0,'11111222,11111222,99999999' 
TABS,ioos:station:wmo:42047:1,2013-10-03T20:00:00Z,27.8966,-93.5973,2.0,41.71852514,14.57615862,-99999.0,'11111222,11111222,99999999' 
TABS,ioos:station:wmo:42047:1,2013-10-03T20:30:00Z,27.8966,-93.5973,2.0,34.71655863,10.21921719,-99999.0,'11111222,11111222,99999999' 
TABS,ioos:station:wmo:42047:1,2013-10-03T21:00:00Z,27.8966,-93.5973,2.0,32.17344545,11.21164573,-99999.0,'11111222,11111222,99999999' 
TABS,ioos:station:wmo:42047:1,2013-10-03T21:30:00Z,27.8966,-93.5973,2.0,30.9409304,12.83667013,-99999.0,'11111222,11111222,99999999' 
TABS,ioos:station:wmo:42047:1,2013-10-03T22:00:00Z,27.8966,-93.5973,2.0,41.85425901,9.921517021,-99999.0,'11133222,11111222,99999999' 
TABS,ioos:station:wmo:42047:1,2013-10-03T22:30:00Z,27.8966,-93.5973,2.0,56.84647166,8.886686672,-99999.0,'11133222,11111222,99999999' 
TABS,ioos:station:wmo:42047:1,2013-10-03T23:00:00Z,27.8966,-93.5973,2.0,39.69825409,8.876812491,-99999.0,'11133222,11111222,99999999' 
TABS,ioos:station:wmo:42047:1,2013-10-03T23:30:00Z,27.8966,-93.5973,2.0,56.05649235,7.521808293,-99999.0,'11133222,11111222,99999999' 
TABS,ioos:station:wmo:42047:1,2013-10-04T00:00:00Z,27.8966,-93.5973,2.0,57.00986773,4.995447928,-99999.0,'11133222,11111222,99999999' 
TABS,ioos:station:wmo:42047:1,2013-10-04T00:30:00Z,27.8966,-93.5973,2.0,69.43014324,4.838481167,-99999.0,'11133222,11111222,99999999' 
TABS,ioos:station:wmo:42047:1,2013-10-04T01:00:00Z,27.8966,-93.5973,2.0,63.43501094,3.175216528,-99999.0,'11133222,11111222,99999999' 
TABS,ioos:station:wmo:42047:1,2013-10-04T01:30:00Z,27.8966,-93.5973,2.0,75.11681934,2.297063343,-99999.0,'11133222,11111222,99999999' 
TABS,ioos:station:wmo:42047:1,2013-10-04T02:00:00Z,27.8966,-93.5973,2.0,70.52974352,2.100095236,-99999.0,'11133222,11111222,99999999' 
TABS,ioos:station:wmo:42047:1,2013-10-04T02:30:00Z,27.8966,-93.5973,2.0,40.3817942,2.546782284,-99999.0,'11133222,11111222,99999999' 
TABS,ioos:station:wmo:42047:1,2013-10-04T03:00:00Z,27.8966,-93.5973,2.0,331.2431568,0.935360893,-99999.0,'11133222,11111222,99999999' 
TABS,ioos:station:wmo:42047:1,2013-10-04T03:30:00Z,27.8966,-93.5973,2.0,243.103405,0.773692445,-99999.0,'11133222,11111222,99999999' 
TABS,ioos:station:wmo:42047:1,2013-10-04T04:00:00Z,27.8966,-93.5973,2.0,242.3275656,1.851809925,-99999.0,'11133222,11111222,99999999' 
TABS,ioos:station:wmo:42047:1,2013-10-04T04:30:00Z,27.8966,-93.5973,2.0,219.690062,1.91031411,-99999.0,'11133222,11111222,99999999' 
TABS,ioos:station:wmo:42047:1,2013-10-04T05:00:00Z,27.8966,-93.5973,2.0,224.9996843,2.658721497,-99999.0,'11133222,11111222,99999999' 
TABS,ioos:station:wmo:42047:1,2013-10-04T05:30:00Z,27.8966,-93.5973,2.0,284.0688021,4.319560163,-99999.0,'11133222,11111222,99999999' 
TABS,ioos:station:wmo:42047:1,2013-10-04T06:00:00Z,27.8966,-93.5973,2.0,308.1893069,3.040805814,-99999.0,'11133222,11111222,99999999' 
TABS,ioos:station:wmo:42047:1,2013-10-04T06:30:00Z,27.8966,-93.5973,2.0,281.5059959,6.316937549,-99999.0,'11133222,11111222,99999999' 
TABS,ioos:station:wmo:42047:1,2013-10-04T07:00:00Z,27.8966,-93.5973,2.0,271.0353265,7.751264413,-99999.0,'11133222,11111222,99999999' 
TABS,ioos:station:wmo:42047:1,2013-10-04T07:30:00Z,27.8966,-93.5973,2.0,280.8317012,7.982205209,-99999.0,'11133222,11111222,99999999' 
TABS,ioos:station:wmo:42047:1,2013-10-04T08:00:00Z,27.8966,-93.5973,2.0,279.1026903,9.418603931,-99999.0,'11133222,11111222,99999999' 
TABS,ioos:station:wmo:42047:1,2013-10-04T08:30:00Z,27.8966,-93.5973,2.0,295.4145362,10.01960578,-99999.0,'11111222,11111222,99999999' 
TABS,ioos:station:wmo:42047:1,2013-10-04T09:00:00Z,27.8966,-93.5973,2.0,311.3721597,10.72709653,-99999.0,'11111222,11111222,99999999' 
TABS,ioos:station:wmo:42047:1,2013-10-04T09:30:00Z,27.8966,-93.5973,2.0,301.5721176,12.60585578,-99999.0,'11111222,11111222,99999999' 
TABS,ioos:station:wmo:42047:1,2013-10-04T10:00:00Z,27.8966,-93.5973,2.0,308.1788607,12.08515205,-99999.0,'11111222,11111222,99999999' 
TABS,ioos:station:wmo:42047:1,2013-10-04T10:30:00Z,27.8966,-93.5973,2.0,309.5674287,12.92031346,-99999.0,'11111222,11111222,99999999' 
TABS,ioos:station:wmo:42047:1,2013-10-04T11:00:00Z,27.8966,-93.5973,2.0,325.3424359,11.65868775,-99999.0,'11111222,11111222,99999999' 
TABS,ioos:station:wmo:42047:1,2013-10-04T11:30:00Z,27.8966,-93.5973,2.0,327.2258276,15.79433126,-99999.0,'11111222,11111222,99999999' 
TABS,ioos:station:wmo:42047:1,2013-10-04T12:00:00Z,27.8966,-93.5973,2.0,332.0003704,16.25236598,-99999.0,'11111222,11111222,99999999' 
TABS,ioos:station:wmo:42047:1,2013-10-04T12:30:00Z,27.8966,-93.5973,2.0,325.2514905,13.50925609,-99999.0,'11111222,11111222,99999999' 
TABS,ioos:station:wmo:42047:1,2013-10-04T13:00:00Z,27.8966,-93.5973,2.0,340.2638738,15.87240372,-99999.0,'11111222,11111222,99999999' 
TABS,ioos:station:wmo:42047:1,2013-10-04T13:30:00Z,27.8966,-93.5973,2.0,348.6496019,16.56397295,-99999.0,'11111222,11111222,99999999' 
TABS,ioos:station:wmo:42047:1,2013-10-04T14:00:00Z,27.8966,-93.5973,2.0,348.495422,18.45071272,-99999.0,'11111222,11111222,99999999' 
TABS,ioos:station:wmo:42047:1,2013-10-04T14:30:00Z,27.8966,-93.5973,2.0,347.3065055,18.84048832,-99999.0,'11111222,11111222,99999999' 
TABS,ioos:station:wmo:42047:1,2013-10-04T15:00:00Z,27.8966,-93.5973,2.0,350.3512281,17.65983296,-99999.0,'11111222,11111222,99999999' 
TABS,ioos:station:wmo:42047:1,2013-10-04T15:30:00Z,27.8966,-93.5973,2.0,2.78112888,18.96233108,-99999.0,'11111222,11111222,99999999' 
TABS,ioos:station:wmo:42047:1,2013-10-04T16:00:00Z,27.8966,-93.5973,2.0,358.7164094,20.0850417,-99999.0,'11111222,11111222,99999999' 